TimeHST,TemperatureF,Dew PointF,Humidity,Sea Level PressureIn,VisibilityMPH,Wind Direction,Wind SpeedMPH,Gust SpeedMPH,PrecipitationIn,Events,Conditions,WindDirDegrees,DateUTC
12:53 AM,77.0,66.0,69,29.98,10.0,East,12.7,-,N/A,,Clear,90,2012-10-23 10:53:00
1:53 AM,75.9,66.9,74,29.96,10.0,East,9.2,-,N/A,,Scattered Clouds,100,2012-10-23 11:53:00
2:49 AM,77.0,66.2,69,29.96,10.0,East,13.8,-,N/A,,Mostly Cloudy,90,2012-10-23 12:49:00
2:53 AM,77.0,66.0,69,29.95,10.0,East,11.5,-,N/A,,Mostly Cloudy,90,2012-10-23 12:53:00
3:01 AM,77.0,66.2,69,29.96,10.0,East,9.2,-,N/A,,Mostly Cloudy,90,2012-10-23 13:01:00
3:10 AM,77.0,66.2,69,29.96,10.0,East,10.4,-,N/A,,Overcast,90,2012-10-23 13:10:00
3:18 AM,77.0,66.2,69,29.96,10.0,East,10.4,-,N/A,,Mostly Cloudy,90,2012-10-23 13:18:00
3:29 AM,77.0,66.2,69,29.96,10.0,East,11.5,-,N/A,,Mostly Cloudy,100,2012-10-23 13:29:00
3:38 AM,77.0,64.4,65,29.96,10.0,ESE,12.7,-,N/A,,Mostly Cloudy,110,2012-10-23 13:38:00
3:53 AM,77.0,64.9,66,29.95,10.0,East,11.5,-,N/A,,Overcast,90,2012-10-23 13:53:00
4:53 AM,75.2,64.4,69,29.95,10.0,East,12.7,-,N/A,,Clear,90,2012-10-23 14:53:00
5:44 AM,75.2,66.2,73,29.96,10.0,East,10.4,-,N/A,,Mostly Cloudy,90,2012-10-23 15:44:00
5:53 AM,75.9,64.9,69,29.96,10.0,East,11.5,-,N/A,,Scattered Clouds,90,2012-10-23 15:53:00
6:53 AM,75.9,66.0,71,29.97,10.0,East,10.4,-,N/A,,Scattered Clouds,90,2012-10-23 16:53:00
7:53 AM,79.0,66.0,64,29.98,10.0,East,10.4,-,N/A,,Scattered Clouds,90,2012-10-23 17:53:00
8:53 AM,81.0,66.0,60,29.99,10.0,East,11.5,-,N/A,,Scattered Clouds,90,2012-10-23 18:53:00
9:53 AM,82.0,66.0,58,29.99,10.0,East,11.5,-,N/A,,Partly Cloudy,80,2012-10-23 19:53:00
10:53 AM,82.0,66.9,60,29.98,10.0,East,10.4,-,N/A,,Partly Cloudy,90,2012-10-23 20:53:00
11:53 AM,82.9,66.9,58,29.95,10.0,ESE,10.4,-,N/A,,Partly Cloudy,110,2012-10-23 21:53:00
12:53 PM,81.0,66.0,60,29.92,10.0,ESE,8.1,-,N/A,,Clear,120,2012-10-23 22:53:00
1:53 PM,82.0,66.0,58,29.90,10.0,ESE,9.2,-,N/A,,Clear,120,2012-10-23 23:53:00
2:53 PM,82.0,64.0,54,29.88,10.0,South,10.4,-,N/A,,Clear,180,2012-10-24 00:53:00
3:53 PM,81.0,63.0,54,29.88,10.0,South,11.5,-,N/A,,Clear,170,2012-10-24 01:53:00
4:53 PM,81.0,62.1,52,29.89,10.0,South,9.2,-,N/A,,Clear,170,2012-10-24 02:53:00
5:53 PM,79.0,64.0,60,29.91,10.0,SSE,6.9,-,N/A,,Clear,160,2012-10-24 03:53:00
6:53 PM,77.0,66.9,71,29.93,10.0,South,4.6,-,N/A,,Clear,180,2012-10-24 04:53:00
7:53 PM,75.0,64.9,71,29.95,10.0,WNW,5.8,-,N/A,,Clear,290,2012-10-24 05:53:00
8:53 PM,73.0,64.9,76,29.97,10.0,West,6.9,-,N/A,,Scattered Clouds,260,2012-10-24 06:53:00
9:53 PM,72.0,64.0,76,29.98,10.0,West,5.8,-,N/A,,Clear,270,2012-10-24 07:53:00
10:53 PM,72.0,64.9,78,29.96,10.0,West,6.9,-,N/A,,Clear,280,2012-10-24 08:53:00
11:53 PM,72.0,64.9,78,29.94,10.0,West,8.1,-,N/A,,Clear,280,2012-10-24 09:53:00